Visibility
15.0 15.0 15.0 15.0 15.0 15.0 15.0 15.0 15.0 15.0 15.0 15.0 15.0 15.0 15.0 15.0 12.2 15.0 15.0 15.0 15.0 15.0 15.0 15.0 15.0 15.0 15.0 15.0 15.0 15.0 15.0 15.0 15.0 15.0 15.0 15.0 15.0 15.0 13.3 15.0 15.0 15.0 15.0
15.0 15.0 15.0 15.0 15.0 15.0 15.0 15.0 15.0 15.0 15.0 15.0 15.0 15.0 15.0 15.0 2.8 6.8 15.0 15.0 15.0 15.0 15.0 15.0 8.7 15.0 15.0 15.0 15.0 15.0 15.0 15.0 15.0 15.0 15.0 15.0 15.0 15.0 15.0 15.0 15.0 15.0 15.0
15.0 15.0 15.0 15.0 15.0 15.0 15.0 15.0 15.0 15.0 15.0 5.2 15.0 15.0 12.8 15.0 15.0 15.0 15.0 15.0 15.0 15.0 15.0 15.0 15.0 15.0 15.0 15.0 15.0 15.0 15.0 9.2 15.0 15.0 15.0 15.0 15.0 15.0 15.0 15.0 15.0 15.0 15.0
15.0 15.0 15.0 15.0 15.0 15.0 15.0 15.0 15.0 15.0 15.0 15.0 15.0 11.7 4.0 8.4 15.0 8.1 15.0 15.0 15.0 15.0 15.0 15.0 15.0 15.0 15.0 15.0 15.0 15.0 14.6 13.2 12.6 15.0 15.0 15.0 15.0 15.0 15.0 15.0 15.0 15.0 15.0
15.0 15.0 15.0 15.0 15.0 15.0 15.0 15.0 15.0 15.0 15.0 15.0 15.0 15.0 15.0 15.0 15.0 15.0 15.0 15.0 15.0 15.0 14.4 15.0 15.0 15.0 15.0 15.0 15.0 15.0 15.0 15.0 15.0 15.0 15.0 15.0 15.0 15.0 15.0 15.0 15.0 15.0 15.0
15.0 15.0 15.0 15.0 15.0 15.0 15.0 15.0 15.0 15.0 15.0 15.0 15.0 15.0 15.0 15.0 1.7 15.0 13.0 15.0 15.0 15.0 15.0 15.0 15.0 11.7 15.0 11.4 14.9 15.0 14.2 6.7 15.0 14.8 15.0 15.0 15.0 15.0 15.0 15.0 15.0 15.0 15.0
15.0 15.0 15.0 15.0 15.0 15.0 15.0 15.0 15.0 15.0 15.0 15.0 15.0 15.0 15.0 15.0 8.6 5.2 6.7 15.0 15.0 15.0 15.0 15.0 15.0 12.2 15.0 15.0 9.9 12.3 11.5 8.5 2.5 14.5 15.0 15.0 15.0 15.0 15.0 15.0 15.0 15.0 15.0
15.0 15.0 15.0 15.0 15.0 15.0 15.0 15.0 15.0 15.0 15.0 15.0 15.0 15.0 15.0 14.5 4.6 15.0 15.0 15.0 15.0 11.0 9.3 15.0 15.0 15.0 15.0 9.2 15.0 13.9 15.0 15.0 15.0 9.6 15.0 15.0 15.0 15.0 15.0 15.0 15.0 15.0 15.0
15.0 15.0 15.0 15.0 15.0 15.0 15.0 15.0 15.0 15.0 15.0 15.0 15.0 15.0 15.0 14.6 0.0 0.2 0.3 15.0 15.0 15.0 15.0 12.6 3.7 15.0 0.0 0.0 3.2 4.1 15.0 15.0 6.5 13.5 15.0 14.0 0.1 0.0 0.1 0.1 4.5 0.5 15.0
15.0 15.0 15.0 15.0 15.0 15.0 15.0 15.0 15.0 15.0 15.0 15.0 15.0 9.3 3.5 14.9 0.0 0.0 0.1 6.9 15.0 5.9 0.0 0.0 0.0 0.1 0.0 0.0 14.4 0.1 0.1 0.5 1.7 15.0 15.0 15.0 1.4 15.0 2.2 0.1 0.1 0.0 0.1
15.0 15.0 15.0 15.0 15.0 15.0 15.0 15.0 15.0 15.0 15.0 15.0 15.0 15.0 15.0 14.4 0.1 0.0 0.0 15.0 15.0 5.4 0.1 0.1 0.0 0.0 0.0 0.1 0.2 0.1 0.1 0.2 15.0 15.0 15.0 15.0 15.0 12.8 11.2 15.0 2.4 0.0 0.1
15.0 15.0 15.0 15.0 15.0 15.0 15.0 15.0 15.0 15.0 15.0 15.0 0.1 0.1 6.2 15.0 0.3 0.0 0.1 0.1 0.1 15.0 8.8 0.1 0.1 0.1 0.0 1.7 0.7 15.0 15.0 15.0 15.0 15.0 14.3 1.0 0.1 0.1 4.9 8.1 15.0 15.0 4.8
15.0 15.0 15.0 15.0 15.0 15.0 15.0 15.0 15.0 15.0 15.0 0.1 0.1 0.1 0.1 14.1 0.1 5.0 0.1 0.1 1.3 1.3 15.0 0.1 0.1 0.0 0.0 0.1 8.0 15.0 15.0 15.0 15.0 15.0 0.3 0.1 0.2 0.6 13.9 15.0 15.0 15.0 15.0
15.0 15.0 15.0 15.0 1.4 15.0 15.0 15.0 15.0 15.0 13.4 0.3 0.1 0.1 11.8 15.0 0.1 0.0 0.1 0.1 0.0 0.0 0.1 0.1 0.1 1.9 12.6 0.1 13.9 15.0 15.0 15.0 15.0 15.0 3.6 15.0 15.0 15.0 15.0 15.0 15.0 15.0 15.0
15.0 12.4 15.0 14.2 3.8 0.1 0.0 0.0 0.3 0.1 6.7 0.2 9.7 9.9 3.4 9.1 8.7 0.0 0.0 8.7 0.1 0.1 0.1 0.8 1.2 2.6 3.2 15.0 15.0 15.0 15.0 15.0 15.0 15.0 15.0 15.0 15.0 15.0 15.0 15.0 15.0 15.0 9.2
2.3 5.7 1.5 1.7 0.2 0.1 0.0 0.0 0.0 0.0 0.0 0.0 0.0 2.6 0.1 0.1 0.0 0.0 0.0 0.0 0.0 0.0 9.9 15.0 15.0 15.0 15.0 15.0 15.0 10.9 15.0 15.0 15.0 15.0 15.0 15.0 15.0 15.0 15.0 15.0 15.0 15.0 15.0
15.0 6.4 0.8 0.2 0.1 0.0 0.0 0.0 0.0 0.0 0.0 0.0 0.0 0.0 0.0 0.0 0.0 0.0 0.0 0.0 0.0 0.0 14.0 15.0 15.0 15.0 15.0 15.0 15.0 15.0 15.0 15.0 15.0 15.0 15.0 15.0 15.0 15.0 15.0 15.0 15.0 15.0 15.0
15.0 0.2 4.9 1.2 1.7 4.7 15.0 15.0 12.8 3.5 15.0 3.8 0.0 0.0 0.0 0.0 0.0 0.0 0.0 0.0 0.0 0.0 14.8 15.0 15.0 15.0 15.0 15.0 15.0 15.0 15.0 15.0 15.0 15.0 15.0 15.0 15.0 15.0 15.0 15.0 15.0 15.0 15.0
14.4 0.4 7.6 1.1 9.5 7.8 15.0 15.0 15.0 15.0 15.0 0.4 0.0 0.0 0.0 0.0 0.0 0.0 0.0 2.2 15.0 7.9 15.0 15.0 15.0 15.0 15.0 15.0 15.0 15.0 15.0 15.0 15.0 15.0 15.0 15.0 15.0 15.0 15.0 15.0 15.0 15.0 15.0
14.1 2.8 5.6 2.2 14.7 15.0 15.0 15.0 15.0 15.0 15.0 15.0 0.1 0.4 0.0 0.0 0.0 0.0 0.0 0.1 15.0 15.0 15.0 15.0 15.0 15.0 15.0 15.0 15.0 15.0 15.0 15.0 15.0 15.0 15.0 15.0 15.0 15.0 15.0 15.0 15.0 15.0 15.0
14.3 13.0 9.0 4.1 5.7 15.0 15.0 15.0 15.0 15.0 15.0 15.0 15.0 0.3 0.1 0.1 15.0 0.7 0.1 0.1 15.0 15.0 15.0 15.0 15.0 15.0 15.0 15.0 15.0 15.0 15.0 15.0 15.0 15.0 15.0 15.0 15.0 15.0 15.0 15.0 15.0 15.0 15.0
3.8 11.7 15.0 15.0 15.0 15.0 15.0 15.0 15.0 15.0 15.0 15.0 15.0 0.3 0.1 0.1 14.4 15.0 15.0 15.0 15.0 15.0 15.0 15.0 15.0 15.0 15.0 15.0 15.0 15.0 15.0 15.0 15.0 15.0 15.0 15.0 15.0 15.0 15.0 15.0 15.0 15.0 15.0
0.2 2.3 15.0 10.1 5.9 9.6 14.5 15.0 15.0 15.0 15.0 15.0 15.0 11.7 0.0 0.1 11.3 15.0 15.0 15.0 15.0 15.0 15.0 15.0 15.0 15.0 15.0 15.0 15.0 15.0 15.0 15.0 15.0 15.0 15.0 15.0 15.0 15.0 15.0 15.0 15.0 15.0 15.0
7.9 4.3 11.5 14.4 13.0 7.3 13.1 15.0 13.9 15.0 15.0 15.0 15.0 15.0 15.0 15.0 15.0 15.0 15.0 15.0 15.0 15.0 15.0 15.0 15.0 15.0 15.0 15.0 15.0 15.0 15.0 15.0 15.0 15.0 15.0 15.0 15.0 11.9 15.0 15.0 15.0 15.0 15.0
15.0 14.1 11.7 5.2 14.9 15.0 15.0 15.0 15.0 15.0 15.0 15.0 15.0 15.0 15.0 15.0 15.0 15.0 15.0 15.0 15.0 15.0 15.0 15.0 15.0 15.0 15.0 15.0 15.0 15.0 15.0 15.0 8.2 13.7 15.0 15.0 15.0 15.0 15.0 15.0 15.0 15.0 15.0
15.0 15.0 11.5 15.0 14.7 15.0 15.0 15.0 15.0 15.0 15.0 15.0 15.0 15.0 15.0 15.0 15.0 15.0 15.0 15.0 15.0 15.0 15.0 15.0 15.0 15.0 15.0 15.0 12.0 0.1 2.4 15.0 9.7 6.0 13.3 15.0 15.0 15.0 15.0 15.0 15.0 15.0 15.0